Satellite-Ground Cal/Val Region Overpasses Predictions

Prediction of Satellite NPP Overpassing Cal/Val Region: PacN

Region Location: (Latitude: 15.00, Longitude: 179.40) to (Latitude: 23.50, Longitude: 200.60).

Table of predicted overpasses for the next 14.0 days since TLE Epoch: 10/19/2024
Interval Starting Time Starting Location Ending Time Ending Location
1 10/23/2024 13:36:37 ( 18.65, 180.00) 10/23/2024 13:37:19 ( 16.18, 179.41)
2 10/28/2024 01:12:33 ( 19.25, 180.00) 10/28/2024 01:13:14 ( 21.65, 179.41)
3 10/28/2024 13:41:36 ( 23.47, 179.60) 10/28/2024 13:41:49 ( 22.71, 179.40)
